Weather History for K9D7 - November, 2011

Change the Weather History Date:

Sunday, November 13, 2011

  Actual Average (KDVL) Record (KDVL)
Temperature  
Mean Temperature 34 °F -  
Max Temperature 39 °F 34 °F 61 °F (1953)
Min Temperature 30 °F 19 °F -7 °F (1986)
Degree Days  
Heating Degree Days 30    
Moisture  
Dew Point 28 °F    
Average Humidity 81    
Maximum Humidity 87    
Minimum Humidity 70    
Precipitation  
Precipitation 0.00 in - - ()
Sea Level Pressure  
Sea Level Pressure 29.21 in    
Wind  
Wind Speed 13 mph (WSW)    
Max Wind Speed 20 mph    
Max Gust Speed 26 mph    
Visibility 10 miles    
Events      
Averages and records for this station are not official NWS values.
T = Trace of Precipitation, MM = Missing Value Source: NWS Daily Summary

Daily Weather History Graph

Daily Weather History Graph

Search for Another Location

Airport or City:

Trip Planner

Search our weather history database for the weather conditions in past years. The results will help you decide how hot, cold, wet, or windy it might be!

Date:

Astronomy

Nov. 13, 2011 Rise Set
Actual Time 7:41 AM CST 5:00 PM CST
Civil Twilight 7:07 AM CST 5:34 PM CST
Nautical Twilight 6:29 AM CST 6:12 PM CST
Astronomical Twilight 5:52 AM CST 6:49 PM CST
Moon 7:01 PM CST (11/13) 10:24 AM CST (11/13)
Length of Visible Light 10h 27m
Length of Day
9h 19m
Waning Gibbous, 92% of the Moon is Illuminated
Nov 13
Waning Gibbous
Nov 18
Last Quarter
Nov 25
New
Dec 2
First Quarter
Dec 10
Full

Hourly Weather History & Observations

Time (CST) Temp. Windchill Dew Point Humidity Pressure Visibility Wind Dir Wind Speed Gust Speed Precip Events Conditions
12:15 AM 32.0 °F 20.1 °F 28.4 °F 87% 29.18 in 9.0 mi WNW 19.6 mph 26.5 mph N/A   Overcast
12:35 AM 32.0 °F 20.1 °F 28.4 °F 87% 29.19 in 10.0 mi WNW 19.6 mph 24.2 mph N/A   Overcast
12:55 AM 32.0 °F 20.8 °F 28.4 °F 87% 29.19 in 10.0 mi WNW 17.3 mph 23.0 mph N/A   Overcast
1:15 AM 32.0 °F 21.6 °F 28.4 °F 87% 29.19 in 10.0 mi NW 15.0 mph 21.9 mph N/A   Overcast
1:35 AM 32.0 °F 20.8 °F 28.4 °F 87% 29.20 in 10.0 mi NW 17.3 mph 25.3 mph N/A   Overcast
2:15 AM 32.0 °F 22.1 °F 28.4 °F 87% 29.19 in 10.0 mi NW 13.8 mph 19.6 mph N/A   Overcast
2:35 AM 32.0 °F 21.6 °F 28.4 °F 87% 29.19 in 10.0 mi WNW 15.0 mph 19.6 mph N/A   Overcast
2:55 AM 32.0 °F 22.1 °F 28.4 °F 87% 29.19 in 10.0 mi WNW 13.8 mph - N/A   Overcast
3:15 AM 32.0 °F 20.8 °F 28.4 °F 87% 29.20 in 10.0 mi West 17.3 mph - N/A   Overcast
3:35 AM 32.0 °F 22.1 °F 28.4 °F 87% 29.20 in 10.0 mi WNW 13.8 mph - N/A   Overcast
3:55 AM 32.0 °F 21.2 °F 28.4 °F 87% 29.20 in 10.0 mi WNW 16.1 mph 20.7 mph N/A   Overcast
4:15 AM 32.0 °F 22.1 °F 28.4 °F 87% 29.20 in 10.0 mi WNW 13.8 mph - N/A   Overcast
4:35 AM 32.0 °F 22.1 °F 28.4 °F 87% 29.20 in 10.0 mi WNW 13.8 mph - N/A   Overcast
4:55 AM 32.0 °F 23.0 °F 28.4 °F 87% 29.21 in 10.0 mi WNW 11.5 mph 17.3 mph N/A   Overcast
5:35 AM 32.0 °F 22.1 °F 28.4 °F 87% 29.22 in 10.0 mi WNW 13.8 mph - N/A   Overcast
5:55 AM 32.0 °F 22.5 °F 26.6 °F 80% 29.23 in 10.0 mi West 12.7 mph - N/A   Overcast
6:55 AM 32.0 °F 22.5 °F 26.6 °F 80% 29.23 in 10.0 mi West 12.7 mph - N/A   Overcast
7:15 AM 32.0 °F 23.0 °F 26.6 °F 80% 29.24 in 10.0 mi West 11.5 mph - N/A   Overcast
7:35 AM 32.0 °F 23.0 °F 26.6 °F 80% 29.24 in 10.0 mi West 11.5 mph 16.1 mph N/A   Overcast
7:55 AM 30.2 °F 20.2 °F 26.6 °F 86% 29.24 in 10.0 mi West 12.7 mph - N/A   Overcast
8:15 AM 30.2 °F 21.3 °F 26.6 °F 86% 29.24 in 10.0 mi West 10.4 mph - N/A   Overcast
8:35 AM 32.0 °F 23.6 °F 26.6 °F 80% 29.24 in 10.0 mi West 10.4 mph - N/A   Overcast
8:55 AM 32.0 °F 23.0 °F 26.6 °F 80% 29.24 in 10.0 mi WNW 11.5 mph - N/A   Overcast
9:15 AM 32.0 °F 23.6 °F 26.6 °F 80% 29.23 in 10.0 mi WNW 10.4 mph - N/A   Overcast
9:35 AM 32.0 °F 24.8 °F 26.6 °F 80% 29.24 in 10.0 mi West 8.1 mph - N/A   Overcast
9:55 AM 32.0 °F 24.8 °F 26.6 °F 80% 29.24 in 10.0 mi West 8.1 mph - N/A   Overcast
10:15 AM 32.0 °F 24.8 °F 26.6 °F 80% 29.24 in 10.0 mi West 8.1 mph - N/A   Overcast
10:35 AM 32.0 °F 25.6 °F 26.6 °F 80% 29.24 in 10.0 mi West 6.9 mph - N/A   Mostly Cloudy
10:55 AM 32.0 °F 25.6 °F 26.6 °F 80% 29.24 in 10.0 mi West 6.9 mph - N/A   Overcast
11:15 AM 32.0 °F 25.6 °F 26.6 °F 80% 29.24 in 10.0 mi WSW 6.9 mph - N/A   Overcast
11:35 AM 32.0 °F 24.8 °F 26.6 °F 80% 29.23 in 10.0 mi WSW 8.1 mph - N/A   Overcast
11:55 AM 32.0 °F 25.6 °F 28.4 °F 87% 29.23 in 9.0 mi WSW 6.9 mph - N/A   Mostly Cloudy
12:15 PM 32.0 °F 26.4 °F 28.4 °F 87% 29.22 in 10.0 mi SW 5.8 mph - N/A   Overcast
12:35 PM 35.6 °F 29.9 °F 28.4 °F 75% 29.22 in 10.0 mi SSW 6.9 mph - N/A   Overcast
12:55 PM 35.6 °F 28.6 °F 30.2 °F 81% 29.21 in 10.0 mi South 9.2 mph - N/A   Overcast
1:15 PM 35.6 °F 28.6 °F 30.2 °F 81% 29.21 in 10.0 mi SSW 9.2 mph - N/A   Overcast
1:35 PM 37.4 °F 29.8 °F 30.2 °F 75% 29.21 in 10.0 mi SSW 11.5 mph - N/A   Overcast
1:55 PM 37.4 °F 29.8 °F 30.2 °F 75% 29.20 in 10.0 mi SSW 11.5 mph - N/A   Mostly Cloudy
2:15 PM 39.2 °F 32.0 °F 30.2 °F 70% 29.19 in 10.0 mi SSW 11.5 mph - N/A   Mostly Cloudy
2:35 PM 37.4 °F 30.8 °F 30.2 °F 75% 29.19 in 10.0 mi South 9.2 mph - N/A   Mostly Cloudy
2:55 PM 37.4 °F 31.4 °F 32.0 °F 81% 29.18 in 10.0 mi SE 8.1 mph - N/A   Mostly Cloudy
3:15 PM 37.4 °F 31.4 °F 32.0 °F 81% 29.18 in 10.0 mi SE 8.1 mph - N/A   Overcast
3:35 PM 39.2 °F 34.2 °F 32.0 °F 75% 29.18 in 10.0 mi SE 6.9 mph - N/A   Mostly Cloudy
3:55 PM 39.2 °F 35.0 °F 32.0 °F 75% 29.18 in 10.0 mi SE 5.8 mph - N/A   Partly Cloudy
4:15 PM 39.2 °F 34.2 °F 32.0 °F 75% 29.18 in 10.0 mi SE 6.9 mph - N/A   Mostly Cloudy
4:35 PM 37.4 °F 32.8 °F 32.0 °F 81% 29.18 in 10.0 mi SE 5.8 mph - N/A   Overcast
4:55 PM 35.6 °F 31.7 °F 32.0 °F 87% 29.18 in 10.0 mi South 4.6 mph - N/A   Overcast
5:15 PM 37.4 °F 32.1 °F 28.4 °F 70% 29.18 in 10.0 mi SW 6.9 mph - N/A   Overcast
5:35 PM 35.6 °F 29.9 °F 26.6 °F 70% 29.19 in 10.0 mi SW 6.9 mph - N/A   Mostly Cloudy
5:55 PM 32.0 °F 25.6 °F 26.6 °F 80% 29.19 in 10.0 mi SW 6.9 mph - N/A   Overcast
6:15 PM 32.0 °F 24.8 °F 26.6 °F 80% 29.20 in 10.0 mi SW 8.1 mph - N/A   Overcast
6:35 PM 33.8 °F 27.0 °F 26.6 °F 75% 29.20 in 10.0 mi SW 8.1 mph - N/A   Overcast
6:55 PM 33.8 °F 27.7 °F 26.6 °F 75% 29.20 in 10.0 mi WSW 6.9 mph - N/A   Overcast
7:15 PM 33.8 °F 27.7 °F 26.6 °F 75% 29.20 in 10.0 mi WSW 6.9 mph - N/A   Overcast
7:35 PM 32.0 °F 25.6 °F 26.6 °F 80% 29.21 in 10.0 mi WSW 6.9 mph - N/A   Overcast
7:55 PM 32.0 °F 24.2 °F 26.6 °F 80% 29.21 in 7.0 mi WSW 9.2 mph - N/A   Overcast
8:15 PM 32.0 °F 24.8 °F 26.6 °F 80% 29.21 in 10.0 mi SW 8.1 mph - N/A   Overcast
8:55 PM 33.8 °F 25.8 °F 26.6 °F 75% 29.22 in 10.0 mi SW 10.4 mph - N/A   Overcast
9:15 PM 33.8 °F 27.0 °F 26.6 °F 75% 29.22 in 10.0 mi WSW 8.1 mph - N/A   Overcast
9:35 PM 33.8 °F 27.0 °F 26.6 °F 75% 29.22 in 10.0 mi WSW 8.1 mph - N/A   Overcast
9:55 PM 35.6 °F 28.6 °F 26.6 °F 70% 29.22 in 10.0 mi West 9.2 mph - N/A   Overcast
10:55 PM 32.0 °F 25.6 °F 26.6 °F 80% 29.23 in 10.0 mi West 6.9 mph - N/A   Overcast
11:15 PM 32.0 °F 23.6 °F 26.6 °F 80% 29.24 in 10.0 mi WSW 10.4 mph - N/A   Overcast
11:35 PM 32.0 °F 24.2 °F 26.6 °F 80% 29.24 in 8.0 mi WSW 9.2 mph - N/A   Overcast
11:55 PM 32.0 °F 23.6 °F 26.6 °F 80% 29.24 in 10.0 mi WSW 10.4 mph - N/A   Mostly Cloudy